TimeCDT,TemperatureF,Dew PointF,Humidity,Sea Level PressureIn,VisibilityMPH,Wind Direction,Wind SpeedMPH,Gust SpeedMPH,PrecipitationIn,Events,Conditions,WindDirDegrees,DateUTC
12:15 AM,64.4,50.9,62,30.14,10.0,Calm,Calm,-,N/A,,Clear,0,2013-08-23 05:15:00
12:35 AM,64.4,50.9,62,30.15,10.0,Calm,Calm,-,N/A,,Clear,0,2013-08-23 05:35:00
12:55 AM,62.2,51.3,67,30.15,10.0,Calm,Calm,-,N/A,,Clear,0,2013-08-23 05:55:00
1:15 AM,63.0,50.9,65,30.15,10.0,NNW,3.5,-,N/A,,Clear,330,2013-08-23 06:15:00
1:35 AM,60.8,51.4,71,30.15,10.0,NNW,3.5,-,N/A,,Clear,340,2013-08-23 06:35:00
1:55 AM,59.9,51.8,75,30.14,10.0,North,3.5,-,N/A,,Clear,350,2013-08-23 06:55:00
2:15 AM,60.8,51.3,71,30.14,10.0,Calm,Calm,-,N/A,,Clear,0,2013-08-23 07:15:00
2:35 AM,61.2,50.2,67,30.14,10.0,Calm,Calm,-,N/A,,Clear,0,2013-08-23 07:35:00
2:55 AM,61.2,50.0,67,30.14,10.0,Calm,Calm,-,N/A,,Clear,0,2013-08-23 07:55:00
3:15 AM,60.6,49.8,68,30.14,10.0,NNW,3.5,-,N/A,,Clear,340,2013-08-23 08:15:00
3:35 AM,59.4,51.1,74,30.15,10.0,Calm,Calm,-,N/A,,Clear,0,2013-08-23 08:35:00
3:55 AM,58.5,50.9,76,30.15,10.0,Calm,Calm,-,N/A,,Clear,0,2013-08-23 08:55:00
4:15 AM,58.3,51.3,77,30.15,10.0,Calm,Calm,-,N/A,,Clear,0,2013-08-23 09:15:00
4:35 AM,58.1,51.1,77,30.15,10.0,Calm,Calm,-,N/A,,Clear,0,2013-08-23 09:35:00
4:55 AM,56.3,50.4,80,30.15,10.0,North,5.8,-,N/A,,Clear,350,2013-08-23 09:55:00
5:15 AM,56.1,51.3,84,30.16,10.0,Calm,Calm,-,N/A,,Clear,0,2013-08-23 10:15:00
5:35 AM,55.6,51.3,85,30.16,10.0,Calm,Calm,-,N/A,,Clear,0,2013-08-23 10:35:00
5:55 AM,55.0,51.6,88,30.16,10.0,Calm,Calm,-,N/A,,Clear,0,2013-08-23 10:55:00
6:15 AM,54.1,51.4,91,30.17,10.0,Calm,Calm,-,N/A,,Clear,0,2013-08-23 11:15:00
6:35 AM,54.5,50.9,88,30.17,10.0,North,4.6,-,N/A,,Clear,350,2013-08-23 11:35:00
6:55 AM,55.0,51.4,88,30.17,10.0,NNW,4.6,-,N/A,,Clear,340,2013-08-23 11:55:00
7:15 AM,55.4,51.6,87,30.18,10.0,NNW,3.5,-,N/A,,Clear,340,2013-08-23 12:15:00
7:35 AM,56.3,52.5,87,30.18,10.0,Calm,Calm,-,N/A,,Clear,0,2013-08-23 12:35:00
7:55 AM,57.6,53.2,85,30.18,10.0,Calm,Calm,-,N/A,,Clear,0,2013-08-23 12:55:00
8:15 AM,59.0,53.6,82,30.18,10.0,Calm,Calm,-,N/A,,Clear,0,2013-08-23 13:15:00
8:35 AM,61.5,54.7,78,30.18,10.0,Calm,Calm,-,N/A,,Clear,0,2013-08-23 13:35:00
8:55 AM,62.8,55.8,78,30.19,10.0,ENE,3.5,-,N/A,,Clear,60,2013-08-23 13:55:00
9:15 AM,64.4,57.0,77,30.18,10.0,ENE,3.5,-,N/A,,Clear,70,2013-08-23 14:15:00
9:35 AM,65.7,57.0,74,30.18,10.0,ESE,3.5,-,N/A,,Clear,120,2013-08-23 14:35:00
9:55 AM,68.0,57.7,70,30.18,10.0,East,4.6,-,N/A,,Clear,80,2013-08-23 14:55:00
10:15 AM,68.7,58.1,69,30.18,10.0,Calm,Calm,-,N/A,,Clear,0,2013-08-23 15:15:00
10:35 AM,71.1,59.2,66,30.18,10.0,South,4.6,-,N/A,,Clear,170,2013-08-23 15:35:00
10:55 AM,71.8,58.6,63,30.18,10.0,ESE,4.6,-,N/A,,Clear,120,2013-08-23 15:55:00
11:15 AM,73.2,59.0,61,30.17,10.0,ESE,4.6,-,N/A,,Clear,120,2013-08-23 16:15:00
11:35 AM,75.6,58.6,56,30.16,10.0,ESE,3.5,-,N/A,,Clear,120,2013-08-23 16:35:00
11:55 AM,77.0,58.6,53,30.16,10.0,SE,3.5,-,N/A,,Clear,140,2013-08-23 16:55:00
12:15 PM,78.6,58.8,50,30.15,10.0,Calm,Calm,-,N/A,,Clear,0,2013-08-23 17:15:00
12:35 PM,80.4,58.8,48,30.14,10.0,East,4.6,-,N/A,,Clear,100,2013-08-23 17:35:00
12:55 PM,81.0,58.1,46,30.14,10.0,Calm,Calm,-,N/A,,Clear,0,2013-08-23 17:55:00
1:15 PM,82.2,56.3,41,30.13,10.0,South,3.5,-,N/A,,Clear,190,2013-08-23 18:15:00
1:35 PM,83.1,57.0,41,30.13,10.0,SSE,3.5,-,N/A,,Clear,160,2013-08-23 18:35:00
1:55 PM,83.1,56.8,41,30.12,10.0,WSW,3.5,-,N/A,,Clear,240,2013-08-23 18:55:00
2:15 PM,84.2,56.1,38,30.12,10.0,SSE,6.9,-,N/A,,Clear,150,2013-08-23 19:15:00
2:35 PM,83.3,55.9,39,30.11,10.0,SE,6.9,-,N/A,,Clear,140,2013-08-23 19:35:00
2:55 PM,85.8,56.1,36,30.10,10.0,SSW,4.6,-,N/A,,Clear,210,2013-08-23 19:55:00
3:15 PM,85.6,54.5,34,30.10,10.0,SSE,3.5,-,N/A,,Clear,150,2013-08-23 20:15:00
3:35 PM,85.8,55.4,35,30.10,10.0,SSE,9.2,-,N/A,,Scattered Clouds,150,2013-08-23 20:35:00
3:55 PM,86.2,54.1,33,30.10,10.0,SSW,8.1,-,N/A,,Scattered Clouds,210,2013-08-23 20:55:00
4:15 PM,86.0,56.1,36,30.09,10.0,SSE,9.2,-,N/A,,Scattered Clouds,150,2013-08-23 21:15:00
4:35 PM,85.3,56.3,37,30.08,10.0,SSE,5.8,-,N/A,,Clear,160,2013-08-23 21:35:00
4:55 PM,85.6,57.4,38,30.08,10.0,SE,11.5,-,N/A,,Scattered Clouds,140,2013-08-23 21:55:00
5:15 PM,85.3,60.4,43,30.08,10.0,SE,9.2,-,N/A,,Mostly Cloudy,140,2013-08-23 22:15:00
5:35 PM,84.2,60.8,45,30.08,10.0,SE,10.4,-,N/A,,Scattered Clouds,140,2013-08-23 22:35:00
5:55 PM,83.3,62.4,49,30.09,10.0,SSE,8.1,-,N/A,,Scattered Clouds,150,2013-08-23 22:55:00
6:15 PM,82.6,60.6,47,30.08,10.0,South,10.4,-,N/A,,Scattered Clouds,180,2013-08-23 23:15:00
6:35 PM,82.4,61.0,48,30.08,10.0,South,9.2,-,N/A,,Clear,180,2013-08-23 23:35:00
6:55 PM,81.1,61.7,51,30.08,10.0,South,8.1,-,N/A,,Clear,180,2013-08-23 23:55:00
7:15 PM,79.7,62.2,55,30.08,10.0,South,10.4,-,N/A,,Clear,170,2013-08-24 00:15:00
7:35 PM,78.3,60.8,55,30.08,10.0,SSE,8.1,-,N/A,,Clear,160,2013-08-24 00:35:00
7:55 PM,77.0,61.3,58,30.08,10.0,South,8.1,-,N/A,,Clear,170,2013-08-24 00:55:00
8:15 PM,75.2,62.1,64,30.08,10.0,SE,4.6,-,N/A,,Clear,140,2013-08-24 01:15:00
8:35 PM,73.4,62.2,68,30.08,10.0,SE,5.8,-,N/A,,Clear,140,2013-08-24 01:35:00
8:55 PM,72.9,62.6,70,30.09,10.0,SE,3.5,-,N/A,,Clear,130,2013-08-24 01:55:00
9:15 PM,71.8,63.0,74,30.09,10.0,SE,5.8,-,N/A,,Clear,140,2013-08-24 02:15:00
9:35 PM,71.1,63.5,77,30.10,10.0,ESE,3.5,-,N/A,,Clear,110,2013-08-24 02:35:00
9:55 PM,70.5,63.5,78,30.10,10.0,ESE,3.5,-,N/A,,Clear,120,2013-08-24 02:55:00
10:15 PM,70.0,63.7,80,30.11,10.0,East,3.5,-,N/A,,Clear,100,2013-08-24 03:15:00
10:35 PM,69.3,63.9,83,30.10,10.0,East,4.6,-,N/A,,Clear,100,2013-08-24 03:35:00
10:55 PM,68.4,63.7,85,30.10,10.0,SE,5.8,-,N/A,,Clear,130,2013-08-24 03:55:00
11:15 PM,68.5,63.5,84,30.11,10.0,ESE,3.5,-,N/A,,Clear,120,2013-08-24 04:15:00
11:35 PM,66.9,63.3,88,30.11,10.0,East,3.5,-,N/A,,Clear,100,2013-08-24 04:35:00
11:55 PM,67.1,63.5,88,30.11,10.0,East,4.6,-,N/A,,Clear,100,2013-08-24 04:55:00